Regional Weather Roundup
Issued by NWS

Home | Current Version | Previous Version | Text Only | Print | Product List | Glossary On
Versions: 1 2 3 4 5 6 7 8 9 10 11 12 13 14 15 16 17 18 19 20 21 22 23 24 25 26 27 28 29 30 31 32 33 34 35 36 37 38 39 40 41 42 43 44 45 46 47 48 49 50
000
ASUS46 KSEW 221110
RWRWA

WASHINGTON REGIONAL WEATHER ROUNDUP
NATIONAL WEATHER SERVICE SEATTLE WA
400 AM PDT SUN OCT 22 2017

NOTE:"FAIR" INDICATES FEW OR NO CLOUDS BELOW 12,000 FEET WITH NO
SIGNIFICANT WEATHER AND/OR OBSTRUCTIONS TO VISIBILITY.

WAZ507-509-555>559-221200-
SEATTLE, TACOMA, EVERETT, AND VICINITY

CITY           SKY/WX    TMP DP  RH WIND       PRES   REMARKS
EVERETT        CLOUDY    53  52  96 SE10      29.76R
BOEING FIELD   CLOUDY    57  52  83 S13G21    29.77R
RENTON         LGT RAIN  57  53  86 S13G20    29.78R
SEATAC AIRPORT CLOUDY    55  51  86 SW20G35   29.79R
JBLM-MCCHORD   LGT RAIN  54  52  94 SW16G25   29.84R
PUYALLUP       DRIZZLE   54  50  87 W14G24    29.86R
BREMERTON      MOCLDY    53  51  93 SW22G29   29.77R
JBLM-FT LEWIS  LGT RAIN  54  53  99 S10       29.84R
TACOMA NARROWS LGT RAIN  53  49  86 SW15G25   29.83R
$$

WAZ001-503-506-510-514-515-221200-
NORTH INTERIOR

CITY           SKY/WX    TMP DP  RH WIND       PRES   REMARKS
BELLINGHAM     MOCLDY    54  48  80 VRB7      29.72R
FRIDAY HARBOR  PTCLDY    52  50  93 W10G17    29.74R
EASTSOUND      PTCLDY    54  50  87 S12       29.71R
PORT ANGELES   PTCLDY    51  47  86 W7        29.77R
EDIZ HOOK      FAIR      51  47  86 SW10      29.76R
PORT TOWNSEND  MOCLDY    50  50 100 SE6       29.75R
NAS WHIDBEY    MOCLDY    54  47  77 W8        29.78R
ARLINGTON      LGT RAIN  53  51  93 NE5       29.76R
BURLINGTON     MOCLDY    54  50  87 VRB7      29.75R
$$

WAZ020-022-039-040-504-511-512-221200-
SOUTHWEST INTERIOR

CITY           SKY/WX    TMP DP  RH WIND       PRES   REMARKS
SHELTON        CLOUDY    54  51  90 SW17G26   29.81R
OLYMPIA        LGT RAIN  53  51  93 SW8       29.86R
CHEHALIS       MOCLDY    54  50  87 W8G18     29.89R
KELSO          LGT RAIN  56  54  93 CALM      29.93R
VANCOUVER      LGT RAIN  60  57  89 VRB5      29.92R
SCAPPOOSE, OR  LGT RAIN  58  56  93 VRB3      29.93R FOG
PORTLAND, OR   LGT RAIN  59  56  89 SW17G23   29.94R
$$

WAZ021-516-517-221200-
WASHINGTON COAST

CITY           SKY/WX    TMP DP  RH WIND       PRES   REMARKS
FORKS          CLOUDY    53  50  89 SW7       29.82R
HOQUIAM        CLOUDY    55  53  93 SW15      29.88R
ASTORIA, OR    CLOUDY    57  54  89 SW14G21   29.93R
$$

WAZ019-023-024-040-567>569-221200-
CASCADE MOUNTAINS AND COLUMBIA GORGE

CITY           SKY/WX    TMP DP  RH WIND       PRES   REMARKS
STAMPEDE PASS  RAIN      42  42 100 SW8       29.75R VSB 3/4
TROUTDALE, OR  LGT RAIN  61  56  83 SW16G37   29.94R
HOOD RIVER, OR RAIN      55  52  88 SW7       29.87R
THE DALLES, OR LGT RAIN  50  49  96 NE6       29.88R FOG
$$

WAZ026-027-041>044-520-521-221200-
EAST SLOPES

CITY           SKY/WX    TMP DP  RH WIND       PRES   REMARKS
OMAK           CLOUDY    40  40 100 S8        29.71S
WENATCHEE      LGT RAIN  38  37  97 W3        29.76R
ELLENSBURG     LGT RAIN  43  40  89 NW9       29.78R
YAKIMA         LGT RAIN  48  46  93 NE6       29.77S
SUNNYSIDE ARPT RAIN      55  51  86 SW7       29.81S
YAKIMA TC      LGT RAIN  45  43  93 SE5       29.73F FOG
$$

WAZ028-034-035-221200-
COLUMBIA BASIN

CITY           SKY/WX    TMP DP  RH WIND       PRES   REMARKS
EPHRATA        CLOUDY    47  42  83 SW10      29.73S
MOSES LAKE     CLOUDY    50  48  93 S6        29.75S
PASCO            N/A    N/A N/A N/A MISG        N/A
RICHLAND ARPT  LGT RAIN  59  55  87 SW14G24   29.83R
HERMISTON, OR  LGT RAIN  62  51  67 SW12      29.85R
$$

WAZ036>038-221200-
NORTHEAST WASHINGTON

CITY           SKY/WX    TMP DP  RH WIND       PRES   REMARKS
SPOKANE GEIGER LGT RAIN  50  48  93 SW22G30   29.75S
SPOKANE FELTS  LGT RAIN  53  50  89 SW18G25   29.75F
FAIRCHILD AFB  LGT RAIN  50  50 100 SW17G25   29.75R
COEURDALENE,ID RAIN      52  48  86 SW18      29.76R
DEER PARK      LGT RAIN  51  49  92 SW15G23   29.74R
$$

WAZ029>033-221200-
SOUTHEAST WASHINGTON

CITY           SKY/WX    TMP DP  RH WIND       PRES   REMARKS
PULLMAN        RAIN      51  46  83 SW14G21   29.87R
LEWISTON, ID   CLOUDY    56  45  66 S23G35    29.86R
WALLA WALLA    CLOUDY    65  45  48 SW30G41   29.83R
PENDLETON, OR  LGT RAIN  62  44  51 SW23G31   29.86R
$$



USA.gov is the U.S. government's official web portal to all federal, state and local government web resources and services.